Tracking 19245 objects as of 14-Aug-2018
HD Live streaming from Space Station
objects crossing your sky now

USA 24

Track USA 24 now!
10-day predictions
USA 24 is classified as:


NORAD ID: 18010
Int'l Code: 1987-043F
Perigee: 426.4 km
Apogee: 1,768.0 km
Inclination: 63.3 °
Period: 107.0 minutes
Semi major axis: 7468 km
RCS: Unknown
Launch date: May 15, 1987
Source: United States (US)
Launch site: AIR FORCE WESTERN TEST RANGE (AFWTR)
aabbcc
Your satellite tracking list
Your tracking list is empty




NASA's NSSDC Master Catalog

Two Line Element Set (TLE):
1 18010U 87043F   18209.84170716 0.00000590  00000-0  68664-4 0    07
2 18010  63.3086 138.8434 0898190  51.9565 308.0435 13.45178746    04
Source of the keplerian elements: McCants